TimeCST,TemperatureF,Dew PointF,Humidity,Sea Level PressureIn,VisibilityMPH,Wind Direction,Wind SpeedMPH,Gust SpeedMPH,PrecipitationIn,Events,Conditions,WindDirDegrees,DateUTC
12:53 AM,41.0,32.0,70,30.07,6.0,SSE,11.5,-,0.02,Rain,Light Rain,160,2013-01-27 06:53:00
1:53 AM,39.9,35.1,83,30.06,8.0,SSE,12.7,-,0.04,Rain,Light Rain,150,2013-01-27 07:53:00
2:36 AM,39.2,35.6,87,30.05,10.0,SSE,12.7,-,0.01,Rain,Light Rain,160,2013-01-27 08:36:00
2:53 AM,39.9,35.1,83,30.03,10.0,SSE,13.8,-,0.01,Rain,Light Rain,150,2013-01-27 08:53:00
3:53 AM,39.9,35.1,83,30.02,10.0,SSE,11.5,-,0.00,,Overcast,160,2013-01-27 09:53:00
4:53 AM,39.9,34.0,79,30.00,10.0,SE,9.2,-,N/A,,Overcast,140,2013-01-27 10:53:00
5:06 AM,39.2,33.8,81,29.99,10.0,SE,6.9,-,N/A,,Overcast,140,2013-01-27 11:06:00
5:32 AM,39.2,35.6,87,29.97,10.0,SE,10.4,-,N/A,,Overcast,140,2013-01-27 11:32:00
5:53 AM,39.9,35.1,83,29.97,10.0,SSE,11.5,-,N/A,,Overcast,150,2013-01-27 11:53:00
6:06 AM,39.2,35.6,87,29.96,10.0,SSE,12.7,19.6,N/A,,Overcast,150,2013-01-27 12:06:00
6:53 AM,39.9,36.0,86,29.96,10.0,SSE,12.7,-,0.01,,Overcast,160,2013-01-27 12:53:00
7:53 AM,41.0,37.9,89,29.94,9.0,SSE,15.0,-,N/A,,Overcast,160,2013-01-27 13:53:00
8:53 AM,42.1,39.0,89,29.91,7.0,SSE,15.0,23.0,N/A,,Overcast,160,2013-01-27 14:53:00
9:53 AM,45.0,42.1,90,29.90,7.0,South,12.7,-,N/A,,Overcast,170,2013-01-27 15:53:00
10:53 AM,48.9,45.0,86,29.88,7.0,South,17.3,26.5,N/A,,Overcast,180,2013-01-27 16:53:00
11:53 AM,51.1,48.0,89,29.85,7.0,South,19.6,29.9,N/A,,Overcast,190,2013-01-27 17:53:00
12:53 PM,54.0,48.9,83,29.82,8.0,South,21.9,27.6,N/A,,Overcast,190,2013-01-27 18:53:00
1:20 PM,55.4,50.0,82,29.80,9.0,SSW,17.3,26.5,N/A,,Overcast,200,2013-01-27 19:20:00
1:53 PM,57.0,51.1,81,29.78,10.0,SSW,18.4,28.8,N/A,,Overcast,200,2013-01-27 19:53:00
2:53 PM,59.0,50.0,72,29.77,10.0,SSW,17.3,28.8,N/A,,Mostly Cloudy,210,2013-01-27 20:53:00
3:00 PM,59.0,50.0,72,29.77,10.0,SSW,24.2,34.5,N/A,,Mostly Cloudy,210,2013-01-27 21:00:00
3:53 PM,59.0,50.0,72,29.76,10.0,South,18.4,28.8,N/A,,Partly Cloudy,190,2013-01-27 21:53:00
4:53 PM,59.0,50.0,72,29.75,10.0,South,18.4,29.9,N/A,,Partly Cloudy,190,2013-01-27 22:53:00
5:53 PM,57.9,50.0,75,29.76,10.0,South,18.4,29.9,N/A,,Mostly Cloudy,190,2013-01-27 23:53:00
6:53 PM,57.9,51.1,78,29.79,10.0,SSW,12.7,27.6,N/A,,Overcast,200,2013-01-28 00:53:00
7:53 PM,57.9,52.0,81,29.80,10.0,SSW,17.3,26.5,N/A,,Overcast,200,2013-01-28 01:53:00
8:53 PM,57.9,53.1,84,29.81,9.0,SSW,13.8,-,N/A,,Overcast,200,2013-01-28 02:53:00
9:53 PM,57.9,53.1,84,29.82,8.0,SSW,16.1,21.9,N/A,,Overcast,210,2013-01-28 03:53:00
10:37 PM,59.0,53.6,82,29.83,8.0,SSW,13.8,21.9,N/A,,Overcast,210,2013-01-28 04:37:00
10:53 PM,59.0,54.0,83,29.83,8.0,SSW,11.5,19.6,N/A,,Overcast,210,2013-01-28 04:53:00
11:53 PM,59.0,55.0,87,29.82,7.0,SSW,12.7,-,N/A,,Overcast,200,2013-01-28 05:53:00